"2010-03-26 00:00:00",1794517,4.41,155.8,6.56,1.122,7.971,102.3876,5.393,6.735,45.79,0,110.1,13.4,6.16,117.8
"2010-03-26 00:00:30",1794518,3.181,142.5,6.507,1.139,5.39,102.3716,5.352,6.671,46.43,0,110.1,13.4,6.12,104.5
"2010-03-26 00:01:00",1794519,3.653,141.5,6.834,1.311,5.51,102.3713,5.351,6.762,47.16,0,110.1,13.4,6.12,103.5
"2010-03-26 00:01:30",1794520,3.775,138.8,6.569,1.265,5.277,102.3713,5.351,6.583,47.27,0,110.1,13.4,6.12,100.8
"2010-03-26 00:02:00",1794521,3.064,133.7,6.197,1.099,5.071,102.371,5.351,6.639,47.72,0,110.1,13.4,6.12,95.7
"2010-03-26 00:02:30",1794522,1.887,126,2.489,0.204,3.946,102.3684,5.344,6.596,48.13,0,110.1,13.44,6.11,88.0
"2010-03-26 00:03:00",1794523,3.464,133.3,5.385,1.242,7.521,102.3589,5.32,6.731,48.62,0,110.1,13.4,6.09,95.3
"2010-03-26 00:03:30",1794524,2.543,134.4,7.393,1.333,5.732,102.3439,5.281,6.591,48.66,0,110.1,13.4,6.05,96.4
"2010-03-26 00:04:00",1794525,1.699,135.3,5.823,1.201,4.466,102.3374,5.265,6.45,48.65,0,110.1,13.4,6.04,97.3
"2010-03-26 00:04:30",1794526,1.629,150.5,7.888,1.174,5,102.3374,5.265,6.582,48.88,0,110.1,13.4,6.04,112.5
"2010-03-26 00:05:00",1794527,1.602,159,3.027,1.17,4.263,102.3374,5.265,6.458,48.88,0,110.1,13.4,6.04,121.0
"2010-03-26 00:05:30",1794528,1.951,168.2,5.618,1.299,4.674,102.3374,5.265,6.509,49.05,0,110.1,13.4,6.04,130.2
"2010-03-26 00:06:00",1794529,1.363,177.2,4.033,0.177,3.128,102.3258,5.235,6.385,49.06,0,110.1,13.44,6.01,139.2
"2010-03-26 00:06:30",1794530,1.686,187.6,2.355,0.083,3.667,102.307,5.187,6.379,49.1,0,110.1,13.44,5.96,149.6
"2010-03-26 00:07:00",1794531,2.8,202,7.822,1.369,6.686,102.3058,5.184,6.524,48.96,0,110.1,13.41,5.95,164.0
"2010-03-26 00:07:30",1794532,3.225,202.4,6.508,1.357,7.329,102.3076,5.189,6.495,48.64,0,110.1,13.41,5.96,164.4
"2010-03-26 00:08:00",1794533,3.481,203.3,6.662,1.231,7.965,102.3079,5.189,6.591,48.34,0,110.1,13.41,5.96,165.3
"2010-03-26 00:08:30",1794534,4.001,202.9,6.399,1.147,8.02,102.3037,5.179,6.558,47.92,0,110.1,13.41,5.95,164.9
"2010-03-26 00:09:00",1794535,2.649,194,5.161,1.065,4.615,102.2992,5.167,6.382,47.56,0,110.1,13.41,5.94,156.0
"2010-03-26 00:09:30",1794536,2.792,195.8,6.531,1.212,5.509,102.291,5.146,6.363,47.5,0,110.1,13.41,5.92,157.8
"2010-03-26 00:10:00",1794537,2.007,190.5,0.799,0.024,3.847,102.2814,5.122,6.284,47.5,0,110.1,13.44,5.89,152.5
"2010-03-26 00:10:30",1794538,2.539,189,4.928,1.022,4.998,102.2818,5.123,6.27,47.81,0,110.1,13.4,5.89,151.0
"2010-03-26 00:11:00",1794539,2.96,194.5,7.079,1.176,7.325,102.2867,5.135,6.523,48.42,0,110.1,13.41,5.91,156.5
"2010-03-26 00:11:30",1794540,3.753,199.2,6.195,1.17,8.69,102.2904,5.145,6.472,48.52,0,110.1,13.4,5.91,161.2
"2010-03-26 00:12:00",1794541,4.123,198.4,5.032,1.038,8.7,102.2904,5.145,6.505,48.63,0,110.1,13.4,5.91,160.4
"2010-03-26 00:12:30",1794542,2.982,193.9,7.131,1.178,6.078,102.2897,5.143,6.351,48.71,0,110.1,13.4,5.91,155.9
"2010-03-26 00:13:00",1794543,1.988,188.5,1.268,0.242,3.744,102.2829,5.126,6.206,48.64,0,110.1,13.41,5.90,150.5
"2010-03-26 00:13:30",1794544,2.304,185.1,1.185,0.091,3.61,102.2677,5.087,6.204,48.81,0,110,13.44,5.86,147.1
"2010-03-26 00:14:00",1794545,2.165,183.9,1.891,0.136,4.017,102.269,5.09,6.229,49.06,0,110.1,13.44,5.86,145.9
"2010-03-26 00:14:30",1794546,3.152,185.2,6.731,1.292,7.626,102.2667,5.084,6.451,49.54,0,110,13.41,5.85,147.2
"2010-03-26 00:15:00",1794547,3.6,182.4,7.264,1.22,8.23,102.269,5.09,6.405,49.73,0,110.1,13.41,5.86,144.4
"2010-03-26 00:15:30",1794548,2.696,171.7,9.01,1.313,6.391,102.2487,5.038,6.337,49.95,0,110,13.41,5.81,133.7
"2010-03-26 00:16:00",1794549,1.458,154.5,6.477,0.696,3.713,102.2362,5.006,6.202,49.96,0,110,13.41,5.78,116.5
"2010-03-26 00:16:30",1794550,1.162,147,1.687,0.029,2.834,102.2348,5.003,6.113,49.95,0,110,13.45,5.77,109.0
"2010-03-26 00:17:00",1794551,1.122,143.6,2.012,0.051,3.141,102.2193,4.963,6.073,49.99,0,110,13.45,5.73,105.6
"2010-03-26 00:17:30",1794552,1.213,142.6,5.927,0.66,4.301,102.2029,4.921,6.11,50.15,0,110,13.42,5.69,104.6
"2010-03-26 00:18:00",1794553,2.819,153.8,4.973,1.155,7.822,102.2026,4.921,6.26,50.42,0,110,13.42,5.69,115.8
"2010-03-26 00:18:30",1794554,2.177,156.9,7.236,1.252,7.603,102.2018,4.918,6.274,50.6,0,110,13.42,5.69,118.9
"2010-03-26 00:19:00",1794555,1.949,165.6,10.03,1.357,6.865,102.1922,4.894,6.15,50.59,0,110,13.42,5.66,127.6
"2010-03-26 00:19:30",1794556,2.071,178.9,8.22,1.242,6.661,102.1713,4.841,6.248,50.78,0,110,13.41,5.61,140.9
"2010-03-26 00:20:00",1794557,0.953,182,3.815,0.543,4.128,102.1687,4.834,6.004,50.57,0,110,13.42,5.60,144.0
"2010-03-26 00:20:30",1794558,0.749,193,3.617,0.07,3.027,102.1685,4.833,5.952,50.52,0,110,13.45,5.60,155.0
"2010-03-26 00:21:00",1794559,0.992,195.1,1.733,0.088,3.052,102.1606,4.813,5.938,50.5,0,110,13.45,5.58,157.1
"2010-03-26 00:21:30",1794560,1.002,199.6,2.145,0.059,3.634,102.1431,4.768,5.929,50.49,0,110,13.45,5.54,161.6
"2010-03-26 00:22:00",1794561,1.417,208.1,4.768,1.075,5.496,102.1349,4.748,6.047,50.63,0,110,13.42,5.52,170.1
"2010-03-26 00:22:30",1794562,3.11,210.8,7.626,1.054,8.72,102.1349,4.748,6.104,50.45,0,110,13.42,5.52,172.8
"2010-03-26 00:23:00",1794563,1.885,223.4,10.6,1.234,8.03,102.1303,4.736,6.139,49.43,0,110,13.42,5.50,185.4
"2010-03-26 00:23:30",1794564,1.104,218.8,5.603,1.113,5.905,102.1041,4.669,5.943,47.53,0,110,13.42,5.44,180.8
"2010-03-26 00:24:00",1794565,2.257,221.4,6.581,1.252,7.701,102.101,4.661,5.979,45.43,0,110,13.42,5.43,183.4
"2010-03-26 00:24:30",1794566,0.642,214.2,1.515,0.022,3.939,102.101,4.661,5.806,43.88,0,110,13.46,5.43,176.2
"2010-03-26 00:25:00",1794567,0.572,219.1,1.28,0.03,3.609,102.1013,4.662,5.789,43.04,0,110,13.46,5.43,181.1
"2010-03-26 00:25:30",1794568,0.499,219.5,0.942,0.037,3.854,102.0962,4.649,5.771,42.56,0,110,13.46,5.42,181.5
"2010-03-26 00:26:00",1794569,0.396,217.3,0.652,0.031,4.111,102.0818,4.612,5.754,42.31,0,110,13.46,5.38,179.3
"2010-03-26 00:26:30",1794570,0.368,219.1,1.421,0.011,4.481,102.0682,4.577,5.737,42.28,0,110,13.47,5.35,181.1
"2010-03-26 00:27:00",1794571,0.771,216,4.782,0.908,5.499,102.068,4.577,5.79,42.17,0,110,13.44,5.34,178.0
"2010-03-26 00:27:30",1794572,1.425,217.8,7.554,1.282,7.393,102.07,4.582,5.784,41.93,0,110,13.44,5.35,179.8
"2010-03-26 00:28:00",1794573,1.541,215.1,7.008,1.306,7.476,102.0729,4.589,5.83,41.79,0,110,13.44,5.36,177.1
"2010-03-26 00:28:30",1794574,1.307,200.4,6.656,1.282,6.756,102.0746,4.594,5.884,42.04,0,110,13.44,5.36,162.4
"2010-03-26 00:29:00",1794575,1.345,193.5,4.881,1.199,6.031,102.0749,4.594,5.767,42.55,0,110,13.44,5.36,155.5
"2010-03-26 00:29:30",1794576,1.209,185.3,4.836,0.987,5.8,102.0755,4.596,5.866,43.74,0,110,13.44,5.36,147.3
"2010-03-26 00:30:00",1794577,1.448,184,6.299,1.269,5.329,102.0769,4.6,5.721,45.1,0,110,13.44,5.37,146.0
"2010-03-26 00:30:30",1794578,0.471,180.4,0.712,0.087,4.467,102.0781,4.603,5.755,46.43,0,110,13.47,5.37,142.4
"2010-03-26 00:31:00",1794579,0.462,179.7,2.159,0.054,3.867,102.0781,4.603,5.673,47.3,0,110,13.47,5.37,141.7
"2010-03-26 00:31:30",1794580,0.035,195.6,49.62,0.163,3.611,102.0807,4.609,5.672,47.74,0,110,13.47,5.38,157.6
"2010-03-26 00:32:00",1794581,1.251,178.7,38.87,1.217,6.505,102.0793,4.606,5.751,47.07,0,110,13.44,5.37,140.7
"2010-03-26 00:32:30",1794582,1.562,186.4,9.42,1.259,7.335,102.0808,4.61,5.807,44.55,0,110,13.44,5.38,148.4
"2010-03-26 00:33:00",1794583,0.459,200.6,4.849,0.036,5.278,102.0794,4.606,5.665,41.72,0,110,13.47,5.37,162.6
"2010-03-26 00:33:30",1794584,1.323,215.9,7.124,1.211,7.056,102.0746,4.594,5.783,40.24,0,110,13.44,5.36,177.9
"2010-03-26 00:34:00",1794585,2.553,225.6,7.132,1.179,9.3,102.0752,4.595,5.881,39.84,0,110,13.44,5.36,187.6
"2010-03-26 00:34:30",1794586,1.32,223.7,8.85,1.138,6.964,102.0778,4.602,5.747,38.47,0,110,13.44,5.37,185.7
"2010-03-26 00:35:00",1794587,0.672,210.6,4.758,0.037,4.992,102.0744,4.593,5.644,37.09,0,110,13.47,5.36,172.6
"2010-03-26 00:35:30",1794588,1.244,230.9,7.516,1.087,6.465,102.0787,4.604,5.808,36.94,0,110,13.44,5.37,192.9
"2010-03-26 00:36:00",1794589,1.501,228.9,5.521,1.097,5.816,102.0816,4.612,5.636,36.06,0,110,13.44,5.38,190.9
"2010-03-26 00:36:30",1794590,1.075,227.8,1.784,0.466,5.277,102.0816,4.612,5.684,35.78,0,110,13.44,5.38,189.8
"2010-03-26 00:37:00",1794591,2.159,233.5,6.863,1.253,6.987,102.0813,4.611,5.716,35.81,0,110,13.44,5.38,195.5
"2010-03-26 00:37:30",1794592,1.108,254.2,7.188,0.069,4.805,102.0921,4.638,5.633,38.1,0,110,13.47,5.41,216.2
"2010-03-26 00:38:00",1794593,1.86,255.9,5.833,1.187,5.514,102.0935,4.642,5.665,41.84,0,110,13.44,5.41,217.9
"2010-03-26 00:38:30",1794594,3.447,245.1,8.01,1.152,7.276,102.0949,4.646,5.832,44.28,0,110,13.44,5.41,207.1
"2010-03-26 00:39:00",1794595,3.111,246.4,6.025,1.304,7.531,102.0983,4.654,5.851,45.3,0,110,13.44,5.42,208.4
"2010-03-26 00:39:30",1794596,2.459,256.5,8.81,1.238,6.975,102.1008,4.661,5.808,46.69,0,110,13.43,5.43,218.5
"2010-03-26 00:40:00",1794597,2.369,255.7,7.557,1.19,6.5,102.1011,4.661,5.872,45.38,0,110,13.43,5.43,217.7
"2010-03-26 00:40:30",1794598,2.313,240.3,5.868,1.118,6.482,102.1006,4.66,5.728,41.22,0,110,13.43,5.43,202.3
"2010-03-26 00:41:00",1794599,2.681,248.9,6.397,1.24,7.389,102.0983,4.654,5.745,38.65,0,110,13.44,5.42,210.9
"2010-03-26 00:41:30",1794600,1.956,242.2,1.779,0.08,5.509,102.0977,4.653,5.634,37.14,0,110,13.48,5.42,204.2
"2010-03-26 00:42:00",1794601,2.937,246.3,5.847,1.204,7.75,102.0975,4.652,5.712,36.91,0,110,13.44,5.42,208.3
"2010-03-26 00:42:30",1794602,3.459,245.8,6.553,1.304,8.99,102.1008,4.661,5.874,37.41,0,110,13.44,5.43,207.8
"2010-03-26 00:43:00",1794603,3.413,241,6.483,1.258,10.13,102.1017,4.663,5.899,37.5,0,110,13.44,5.43,203.0
"2010-03-26 00:43:30",1794604,2.815,229.9,5.317,1.282,8.73,102.1017,4.663,5.823,37.51,0,110,13.44,5.43,191.9
"2010-03-26 00:44:00",1794605,2.648,222.9,6.678,1.233,7.196,102.1017,4.663,5.732,37.52,0,110,13.44,5.43,184.9
"2010-03-26 00:44:30",1794606,2.814,220.4,6.947,1.259,7.779,102.1017,4.663,5.782,37.24,0,110,13.44,5.43,182.4
"2010-03-26 00:45:00",1794607,1.799,211.1,1.321,0.032,5.565,102.1017,4.663,5.68,36.31,0,110,13.48,5.43,173.1
"2010-03-26 00:45:30",1794608,1.812,206.4,2.932,0.063,5.498,102.1045,4.67,5.692,35.76,0,110,13.48,5.44,168.4
"2010-03-26 00:46:00",1794609,2.26,196.5,4.204,1.003,6.372,102.1234,4.718,5.701,34.81,0,110,13.45,5.49,158.5
"2010-03-26 00:46:30",1794610,3.138,199.4,6.782,1.331,9.16,102.1328,4.742,5.966,35.09,0,110,13.45,5.51,161.4
"2010-03-26 00:47:00",1794611,3.123,203.2,5.029,1.34,8.98,102.1345,4.747,5.88,34.98,0,110,13.45,5.52,165.2
"2010-03-26 00:47:30",1794612,2.344,214.5,11.7,1.209,7.409,102.1356,4.749,5.911,34.43,0,110,13.45,5.52,176.5
"2010-03-26 00:48:00",1794613,3.839,236.2,6.567,1.192,9.27,102.1356,4.749,5.943,34.76,0,110,13.45,5.52,198.2
"2010-03-26 00:48:30",1794614,2.021,237.2,3.175,0.025,5.995,102.1362,4.751,5.866,35.69,0,110,13.48,5.52,199.2
"2010-03-26 00:49:00",1794615,2.04,244.6,1.501,0.033,5.735,102.1359,4.75,5.764,36.46,0,110,13.48,5.52,206.6
"2010-03-26 00:49:30",1794616,2.1,249.5,1.362,0.027,5.966,102.1359,4.75,5.795,36.82,0,110,13.48,5.52,211.5
"2010-03-26 00:50:00",1794617,2.635,255.1,5.993,1.055,7.557,102.1393,4.759,5.971,37.02,0,110,13.45,5.53,217.1
"2010-03-26 00:50:30",1794618,3.932,262.8,5.528,1.212,10.34,102.1591,4.809,6.054,37.08,0,109.9,13.45,5.58,224.8
"2010-03-26 00:51:00",1794619,3.764,261.3,6.41,1.265,9.51,102.1715,4.841,5.966,37.11,0,110,13.45,5.61,223.3
"2010-03-26 00:51:30",1794620,3.795,266.1,5.826,1.17,9.74,102.175,4.85,6.053,37.21,0,110,13.45,5.62,228.1
"2010-03-26 00:52:00",1794621,3.619,263.3,6.562,1.254,8.77,102.177,4.855,6.031,37.07,0,110,13.45,5.62,225.3
"2010-03-26 00:52:30",1794622,1.868,253.5,0.508,0.03,5.621,102.181,4.865,5.875,36.68,0,110,13.48,5.63,215.5
"2010-03-26 00:53:00",1794623,1.825,251.9,0.681,0.03,5.419,102.196,4.904,5.887,36.41,0,110,13.48,5.67,213.9
"2010-03-26 00:53:30",1794624,1.767,249.7,0.599,0.023,5.69,102.21,4.939,5.905,36.05,0,110,13.48,5.71,211.7
"2010-03-26 00:54:00",1794625,2.106,248.6,4.262,0.911,6.575,102.2199,4.965,5.971,35.82,0,110,13.44,5.73,210.6
"2010-03-26 00:54:30",1794626,3.407,251.2,6.751,1.212,10.25,102.2239,4.975,6.167,35.69,0,110,13.45,5.74,213.2
"2010-03-26 00:55:00",1794627,3.077,241.3,6.429,1.205,9.62,102.2256,4.979,6.108,34.13,0,110,13.45,5.75,203.3
"2010-03-26 00:55:30",1794628,2.447,231.5,7.042,1.297,8.38,102.2276,4.985,6.223,32.95,0,110,13.45,5.75,193.5
"2010-03-26 00:56:00",1794629,1.367,220.6,5.27,1.007,5.612,102.23,4.99,6.018,32.88,0,110,13.45,5.76,182.6
"2010-03-26 00:56:30",1794630,0.659,229.1,4.594,0.054,4.056,102.2314,4.994,5.975,34.49,0,109.9,13.48,5.76,191.1
"2010-03-26 00:57:00",1794631,0.555,242.9,4.945,0.065,3.768,102.234,5.001,5.99,37.58,0,109.9,13.48,5.77,204.9
"2010-03-26 00:57:30",1794632,0.583,241.6,2.181,0.112,3.7,102.2328,4.998,5.992,41.36,0,109.9,13.49,5.77,203.6
"2010-03-26 00:58:00",1794633,1.064,232,3.625,0.12,3.779,102.2357,5.005,5.994,44.53,0,109.9,13.49,5.77,194.0
"2010-03-26 00:58:30",1794634,1.666,235.4,4.957,1.012,5.33,102.2208,4.967,6.168,48.28,0,109.9,13.46,5.74,197.4
"2010-03-26 00:59:00",1794635,2.999,241.6,6.323,1.149,7.933,102.205,4.927,6.208,48.61,0,109.9,13.46,5.70,203.6
"2010-03-26 00:59:30",1794636,3.425,241.9,3.45,0.88,8.76,102.2126,4.946,6.23,48.33,0,109.9,13.46,5.72,203.9
"2010-03-26 01:00:00",1794637,2.575,240.2,5.198,1.305,6.881,102.2118,4.944,6.131,48.78,0,109.9,13.46,5.71,202.2
"2010-03-26 01:00:30",1794638,1.087,248.1,3.673,0.157,4.189,102.2058,4.929,5.947,47.48,0,110,13.49,5.70,210.1
"2010-03-26 01:01:00",1794639,1.519,227.9,5.06,0.186,4.396,102.2041,4.924,5.944,43.57,0,110,13.49,5.69,189.9
"2010-03-26 01:01:30",1794640,2.185,225.6,0.705,0.096,5.621,102.2041,4.924,5.938,39.09,0,110,13.49,5.69,187.6
"2010-03-26 01:02:00",1794641,2.406,225.7,3.32,0.503,6.929,102.2041,4.924,6.034,37.96,0,110,13.5,5.69,187.7
"2010-03-26 01:02:30",1794642,4.333,234.5,6.28,1.198,10.71,102.2041,4.924,6.204,38.75,0,110,13.47,5.69,196.5
"2010-03-26 01:03:00",1794643,4.808,237.5,4.687,1.052,10.91,102.1996,4.913,6.159,39.35,0,110,13.47,5.68,199.5
"2010-03-26 01:03:30",1794644,4.333,236.5,6.407,1.271,9.94,102.1838,4.872,6.173,39.03,0,110,13.47,5.64,198.5
"2010-03-26 01:04:00",1794645,3.715,233.3,6.498,1.237,7.209,102.1714,4.841,6.002,37.61,0,109.9,13.46,5.61,195.3
"2010-03-26 01:04:30",1794646,2.532,232.1,1.998,0.056,4.803,102.1702,4.838,5.892,36.24,0,109.9,13.5,5.61,194.1
"2010-03-26 01:05:00",1794647,2.635,233.1,1.157,0.12,5.204,102.1702,4.838,5.882,35.66,0,109.9,13.5,5.61,195.1
"2010-03-26 01:05:30",1794648,4.293,239.5,6.436,1.3,8.78,102.1702,4.838,6.009,34.98,0,109.9,13.47,5.61,201.5
"2010-03-26 01:06:00",1794649,4.486,235.3,7.032,1.268,9.96,102.1702,4.838,6.123,35.25,0,109.9,13.47,5.61,197.3
"2010-03-26 01:06:30",1794650,4.993,228,6.722,1.071,10.9,102.1702,4.838,6.14,36.61,0,109.9,13.47,5.61,190.0
"2010-03-26 01:07:00",1794651,4.351,217.7,7.041,1.238,10.17,102.1702,4.838,6.118,38.85,0,109.9,13.47,5.61,179.7
"2010-03-26 01:07:30",1794652,3.634,209,6.815,1.158,7.947,102.1702,4.838,5.985,39.77,0,109.9,13.47,5.61,171.0
"2010-03-26 01:08:00",1794653,2.911,205.4,1.056,0.03,6.046,102.1702,4.838,5.899,40.37,0,109.9,13.5,5.61,167.4
"2010-03-26 01:08:30",1794654,2.892,206.3,0.681,0.037,6.235,102.1702,4.838,5.901,40.69,0,109.9,13.5,5.61,168.3
"2010-03-26 01:09:00",1794655,4.111,214.7,6.791,1.309,9.5,102.173,4.845,6.137,40.99,0,109.9,13.47,5.61,176.7
"2010-03-26 01:09:30",1794656,4.709,225.5,6.529,1.184,10.53,102.1776,4.857,6.175,41,0,109.9,13.46,5.63,187.5
"2010-03-26 01:10:00",1794657,4.804,232.8,5.499,1.19,10.57,102.1894,4.887,6.174,40.89,0,109.9,13.46,5.66,194.8
"2010-03-26 01:10:30",1794658,5.117,238.2,6.19,1.091,10.36,102.2027,4.921,6.143,40.65,0,109.9,13.46,5.69,200.2
"2010-03-26 01:11:00",1794659,3.455,234.7,8.1,1.486,5.871,102.2041,4.924,5.942,38.27,0,109.9,13.46,5.69,196.7
"2010-03-26 01:11:30",1794660,2.095,268.5,9.71,0.178,4.966,102.2217,4.969,5.947,34.73,0,109.9,13.5,5.74,230.5
"2010-03-26 01:12:00",1794661,1.23,282.6,7.252,0.203,4.051,102.216,4.955,5.963,42.53,0,109.9,13.5,5.72,244.6
"2010-03-26 01:12:30",1794662,1.712,313.6,12.23,1.202,4.871,102.1824,4.869,6.161,48.84,0,109.9,13.46,5.64,275.6
"2010-03-26 01:13:00",1794663,2.907,325,6.855,1.245,7.09,102.1702,4.838,6.172,48.97,0,109.9,13.46,5.61,287.0
"2010-03-26 01:13:30",1794664,2.949,316.2,9.36,1.14,7.385,102.1708,4.839,6.223,48.72,0,109.9,13.47,5.61,278.2
"2010-03-26 01:14:00",1794665,3.154,297.6,8.54,1.179,7.968,102.1705,4.839,6.148,49.29,0,109.9,13.47,5.61,259.6
"2010-03-26 01:14:30",1794666,1.913,285.2,8.74,0.619,4.397,102.1717,4.842,5.912,47.8,0,109.9,13.47,5.61,247.2
"2010-03-26 01:15:00",1794667,2.453,243.1,7.59,0.195,5.004,102.1731,4.845,5.902,40.92,0,109.9,13.51,5.61,205.1
"2010-03-26 01:15:30",1794668,2.599,235.5,1.473,0.033,5.771,102.1777,4.857,5.902,39.68,0,109.9,13.51,5.63,197.5
"2010-03-26 01:16:00",1794669,3.665,236.2,6.051,1.293,8.33,102.18,4.863,6.035,40.71,0,109.9,13.47,5.63,198.2
"2010-03-26 01:16:30",1794670,4.711,237.7,5.94,1.158,10.52,102.1841,4.873,6.087,40.85,0,109.9,13.48,5.64,199.7
"2010-03-26 01:17:00",1794671,4.862,235.9,5.965,1.122,10.59,102.1861,4.878,6.148,40.8,0,109.9,13.48,5.65,197.9
"2010-03-26 01:17:30",1794672,5.051,234.8,5.961,1.132,10.09,102.189,4.886,6.161,40.79,0,109.9,13.47,5.65,196.8
"2010-03-26 01:18:00",1794673,3.835,228.7,5.505,1.016,7.598,102.1916,4.892,5.986,40.77,0,109.9,13.47,5.66,190.7
"2010-03-26 01:18:30",1794674,3.334,226.6,0.593,0.149,5.918,102.1942,4.899,5.897,40.86,0,109.9,13.51,5.67,188.6
"2010-03-26 01:19:00",1794675,2.893,243.6,10.83,0.335,5.643,102.198,4.909,5.883,39.64,0,109.9,13.51,5.68,205.6
"2010-03-26 01:19:30",1794676,3.82,267.1,14.81,1.287,8.62,102.2011,4.917,6.108,39.35,0,109.9,13.48,5.69,229.1
"2010-03-26 01:20:00",1794677,4.726,277.2,7.756,1.181,9.17,102.2017,4.918,6.156,39.94,0,109.9,13.48,5.69,239.2
"2010-03-26 01:20:30",1794678,4.861,265.3,10.04,1.093,9.86,102.2037,4.923,6.158,39.59,0,109.9,13.48,5.69,227.3
"2010-03-26 01:21:00",1794679,4.617,256.7,7.938,1.318,8.94,102.2043,4.925,6.088,39.19,0,109.9,13.48,5.69,218.7
"2010-03-26 01:21:30",1794680,3.078,236.6,4.092,0.079,5.858,102.2049,4.926,5.903,40.64,0,109.9,13.51,5.70,198.6
"2010-03-26 01:22:00",1794681,3.028,231.6,1.375,0.116,5.979,102.2049,4.926,5.905,41.4,0,109.9,13.51,5.70,193.6
"2010-03-26 01:22:30",1794682,3.6,243.4,7.922,1.048,7.684,102.2052,4.927,6.018,40.77,0,109.9,13.48,5.70,205.4
"2010-03-26 01:23:00",1794683,4.417,245.9,5.895,1.121,9.9,102.2309,4.993,6.127,36.72,0,109.9,13.48,5.76,207.9
"2010-03-26 01:23:30",1794684,3.253,262.1,9.77,1.129,8.17,102.2388,5.013,6.184,39.7,0,109.9,13.48,5.78,224.1
"2010-03-26 01:24:00",1794685,2.522,253.9,8.1,1.307,7.228,102.2136,4.949,6.219,47.44,0,109.9,13.48,5.72,215.9
"2010-03-26 01:24:30",1794686,2.012,277.4,5.54,1.093,5.435,102.2049,4.926,6.023,47.84,0,109.9,13.48,5.70,239.4
"2010-03-26 01:25:00",1794687,1.775,274.9,3.091,0.237,3.116,102.2049,4.926,5.958,48.22,0,109.9,13.51,5.70,236.9
"2010-03-26 01:25:30",1794688,2.288,281.5,0.803,0.145,3.253,102.2049,4.926,5.937,48.73,0,109.9,13.51,5.70,243.5
"2010-03-26 01:26:00",1794689,2.447,276.6,2.751,0.101,3.742,102.2049,4.926,5.927,48.79,0,109.9,13.51,5.70,238.6
"2010-03-26 01:26:30",1794690,3.896,269.6,10.34,1.286,7.407,102.2049,4.926,6.136,49.46,0,109.9,13.48,5.70,231.6
"2010-03-26 01:27:00",1794691,5.81,248.3,5.844,0.89,11.14,102.2049,4.926,6.243,44.74,0,109.9,13.48,5.70,210.3
"2010-03-26 01:27:30",1794692,6.093,230,8.54,1.045,11.56,102.2035,4.923,6.231,42.94,0,109.9,13.48,5.69,192.0
"2010-03-26 01:28:00",1794693,5.213,215.5,5.498,1.092,9.13,102.2015,4.918,6.098,44.09,0,109.9,13.48,5.69,177.5
"2010-03-26 01:28:30",1794694,4.782,221.2,3.158,0.169,6.095,102.2365,5.007,5.935,42.3,0,109.9,13.51,5.78,183.2
"2010-03-26 01:29:00",1794695,4.559,224.1,1.419,0.2,6.33,102.2724,5.099,5.977,41.5,0,110,13.51,5.87,186.1
"2010-03-26 01:29:30",1794696,4.949,225.5,6.671,1.229,9.19,102.2727,5.1,6.192,41.62,0,109.9,13.48,5.87,187.5
"2010-03-26 01:30:00",1794697,5.229,226.4,5.64,1.098,11.26,102.2741,5.103,6.337,39.75,0,109.9,13.48,5.87,188.4
"2010-03-26 01:30:30",1794698,3.365,65.34,53.68,0.76,8.9,102.2778,5.113,6.363,44.08,0,109.9,13.48,5.88,27.3
"2010-03-26 01:31:00",1794699,2.591,13.55,12.98,1.236,6.408,102.2583,5.063,6.22,47.09,0,109.9,13.48,5.83,335.5
"2010-03-26 01:31:30",1794700,2.701,352.1,4.336,0.442,2.972,102.2419,5.021,6.046,47.18,0,109.9,13.52,5.79,314.1
"2010-03-26 01:32:00",1794701,2.818,332.4,7.486,0.309,3.004,102.2388,5.013,6.039,48.58,0,109.9,13.52,5.78,294.4
"2010-03-26 01:32:30",1794702,4.253,321.1,4.557,1.361,6.456,102.2388,5.013,6.169,47.91,0,109.9,13.49,5.78,283.1
"2010-03-26 01:33:00",1794703,3.799,301.7,10.68,1.348,8.52,102.2269,4.983,6.187,42.87,0,109.9,13.49,5.75,263.7
"2010-03-26 01:33:30",1794704,3.928,265.3,13.13,0.792,11.3,102.2055,4.928,6.314,40.17,0,109.9,13.49,5.70,227.3
"2010-03-26 01:34:00",1794705,3.669,247.5,7.562,1.113,9.49,102.2049,4.926,6.237,39.83,0,109.9,13.49,5.70,209.5
"2010-03-26 01:34:30",1794706,1.39,267.1,15.12,0.293,5.377,102.2049,4.926,5.97,39.17,0,109.9,13.52,5.70,229.1
"2010-03-26 01:35:00",1794707,1.783,265.8,8.58,0.474,4.706,102.193,4.896,5.953,38.87,0,109.9,13.52,5.67,227.8
"2010-03-26 01:35:30",1794708,2.931,278.2,7.899,0.304,4.648,102.173,4.845,5.938,38.81,0,109.9,13.52,5.61,240.2
"2010-03-26 01:36:00",1794709,4.553,290.2,5.958,1.373,7.502,102.1718,4.842,5.987,38.77,0,109.8,13.49,5.61,252.2
"2010-03-26 01:36:30",1794710,5.303,293.1,9.93,0.986,9.44,102.1718,4.842,6.136,38.73,0,109.8,13.5,5.61,255.1
"2010-03-26 01:37:00",1794711,5.192,315.7,4.801,0.85,10.22,102.1719,4.842,6.225,38.54,0,109.8,13.5,5.61,277.7
"2010-03-26 01:37:30",1794712,5.029,319.1,6.97,0.792,9.03,102.1598,4.811,6.187,40,0,109.8,13.49,5.58,281.1
"2010-03-26 01:38:00",1794713,4.491,285.8,5.488,1.056,6.344,102.1524,4.792,5.861,39.81,0,109.8,13.49,5.56,247.8
"2010-03-26 01:38:30",1794714,3.599,292.7,10.86,0.68,4.121,102.1469,4.778,5.864,39.61,0,109.8,13.52,5.55,254.7
"2010-03-26 01:39:00",1794715,2.526,308.5,15.24,0.357,4.508,102.1446,4.772,5.926,43.31,0,109.8,13.53,5.54,270.5
"2010-03-26 01:39:30",1794716,3.435,289.9,10.63,1.351,8.11,102.1322,4.741,5.917,42.29,0,109.8,13.5,5.51,251.9
"2010-03-26 01:40:00",1794717,3.044,307.2,18.15,1.156,9.18,102.1189,4.707,6.068,41.49,0,109.8,13.5,5.48,269.2
"2010-03-26 01:40:30",1794718,3.394,308,19.72,0.976,9.7,102.1164,4.7,6.03,41.57,0,109.8,13.5,5.47,270.0
"2010-03-26 01:41:00",1794719,3.173,332.3,13.09,1.323,6.412,102.1158,4.699,5.947,43.3,0,109.8,13.5,5.47,294.3
"2010-03-26 01:41:30",1794720,3.049,325.7,7.704,0.316,3.825,102.1121,4.689,5.756,44.3,0,109.8,13.52,5.46,287.7
"2010-03-26 01:42:00",1794721,3.08,315.8,4.417,0.142,4.387,102.1037,4.668,5.733,44.13,0,109.8,13.52,5.44,277.8
"2010-03-26 01:42:30",1794722,2.842,315.6,5.323,0.784,5.954,102.0978,4.653,5.822,43.49,0,109.8,13.49,5.42,277.6
"2010-03-26 01:43:00",1794723,4.697,314.7,5.198,0.736,10.39,102.0894,4.631,6.015,42.66,0,109.8,13.49,5.40,276.7
"2010-03-26 01:43:30",1794724,3.948,298.6,9.26,1.19,9.38,102.0874,4.626,5.921,42.09,0,109.8,13.49,5.39,260.6
"2010-03-26 01:44:00",1794725,2.196,293.3,9.03,0.968,6.209,102.0897,4.632,5.87,41.61,0,109.8,13.5,5.40,255.3
"2010-03-26 01:44:30",1794726,2.458,308.1,8.21,1.543,6.68,102.0877,4.627,5.744,41.15,0,109.8,13.49,5.40,270.1
"2010-03-26 01:45:00",1794727,0.829,321.4,17.09,0.134,4.207,102.0719,4.587,5.664,40.98,0,109.8,13.52,5.35,283.4
"2010-03-26 01:45:30",1794728,0.574,354.2,23.04,0.182,4.257,102.0609,4.559,5.647,40.85,0,109.8,13.52,5.33,316.2
"2010-03-26 01:46:00",1794729,0.351,357.9,12.79,0.204,4.575,102.0598,4.556,5.65,40.98,0,109.8,13.53,5.32,319.9
"2010-03-26 01:46:30",1794730,1.484,341.2,8.57,0.539,5.048,102.0607,4.558,5.718,41.05,0,109.8,13.5,5.33,303.2
"2010-03-26 01:47:00",1794731,4.128,352.1,8.32,0.996,9.23,102.0624,4.563,5.907,41.4,0,109.8,13.5,5.33,314.1
"2010-03-26 01:47:30",1794732,2.882,15.25,9.48,1.184,8.52,102.0576,4.55,5.837,43.04,0,109.8,13.5,5.32,337.2
"2010-03-26 01:48:00",1794733,2.931,24.82,6.333,1.221,6.095,102.0494,4.529,5.611,44.49,0,109.8,13.5,5.30,346.8
"2010-03-26 01:48:30",1794734,1.807,3.401,7.641,0.514,3.974,102.0313,4.483,5.688,46.54,0,109.8,13.51,5.25,325.4